Location: Clarion
(42.7316°N, 93.7330°W)
Time: 09:35:32
(UTC+00:00)

BREEZE-M R/B - Pass Details

Date: 22 April 2026
Orbit: 1038 x 14820 km, 50.7° (Epoch: 16 May)

Event Time Altitude Azimuth Distance (km) Brightness Sun altitude
Rises 08:52:58 0° 300° (WNW) 3,972 7.1 -24.0°
Reaches altitude 10° 08:55:24 10° 301° (WNW) 2,866 6.3 -23.7°
Maximum altitude 09:01:04 90° 26° (NNE) 1,157 4.3 -23.0°
Drops below altitude 10° 09:10:09 10° 123° (ESE) 4,497 7.6 -21.8°
Sets 09:15:13 0° 124° (SE) 6,586 8.5 -21.1°
